Temperature
14 14 14 14 14 14 14 14 14 13 13 13 13 13 13 13 13 13 14 14 14 14 14 14 14 15 15 15 15 15 15 15 15 15 15 15 15 15
14 14 14 14 14 14 14 14 14 14 13 13 13 13 13 13 13 13 13 13 14 14 14 14 14 14 14 14 15 15 15 15 15 15 15 15 15 15
14 14 14 14 14 14 14 14 14 13 13 13 13 13 13 13 13 13 13 13 13 13 14 14 14 14 14 14 14 14 14 14 14 14 15 15 15 15
14 14 14 14 14 14 14 13 13 13 13 13 13 13 13 13 13 13 13 13 13 13 13 13 13 13 13 14 14 14 14 14 14 14 14 14 14 14
14 14 14 14 14 14 13 13 13 13 13 13 12 12 12 12 13 13 13 13 13 13 13 13 13 13 13 13 13 13 13 13 13 13 13 14 14 14
14 14 13 13 13 13 13 13 13 13 12 12 12 12 12 12 12 12 12 12 12 12 12 12 12 12 12 13 13 13 13 13 13 13 13 13 13 13
14 13 13 13 13 13 13 13 13 12 12 12 12 12 12 12 12 12 12 12 12 12 12 12 12 12 12 12 12 12 12 12 12 12 12 12 12 12
13 13 13 13 13 13 13 12 12 12 12 12 12 12 11 11 11 11 11 11 11 11 11 11 11 11 11 11 11 11 11 11 12 12 12 12 12 12
13 13 13 13 13 12 12 12 12 12 12 11 11 11 11 11 11 10 10 10 10 10 10 11 11 11 11 11 11 11 11 11 11 11 11 11 11 11
13 13 13 13 12 12 12 12 12 12 11 11 11 11 10 10 10 10 10 10 10 10 9 10 10 10 10 10 10 10 10 10 10 10 10 10 10 10
13 13 12 12 12 12 12 12 12 11 11 11 11 10 10 10 10 10 10 9 9 9 9 9 9 9 9 10 10 10 9 9 9 9 9 9 9 9
12 12 12 12 12 12 11 11 11 11 11 11 11 10 10 10 10 9 9 9 8 8 8 8 8 8 8 8 9 9 9 9 8 8 8 9 9 9
12 12 12 12 11 11 11 11 11 11 10 10 10 10 10 10 9 9 9 8 8 8 8 7 7 7 7 7 7 8 8 8 8 8 8 8 8 8
12 12 11 11 11 11 11 11 10 10 10 10 10 10 9 9 9 9 8 8 8 7 7 7 7 6 6 6 6 7 7 7 7 7 7 7 7 7
12 11 11 11 11 11 10 10 10 10 10 9 9 9 9 8 8 8 8 8 7 7 7 7 6 6 6 6 5 6 6 6 6 6 6 6 6 6
11 11 11 11 10 10 10 10 10 9 9 9 9 8 8 8 8 7 7 7 7 7 7 6 6 6 6 5 5 5 5 5 5 5 5 5 5 5
11 11 11 10 10 10 10 10 9 9 9 9 8 8 8 8 7 7 7 6 6 6 6 6 6 5 5 5 5 5 5 5 5 4 4 4 5 5
11 10 10 10 10 10 9 9 9 9 8 8 8 7 7 7 7 7 6 6 6 5 5 5 5 5 5 5 4 4 4 4 4 4 4 3 4 4
10 10 10 10 9 9 9 9 8 8 8 7 7 7 7 6 6 6 5 5 5 5 4 4 4 4 3 3 3 3 3 3 3 3 3 3 3 3
10 10 10 9 9 9 8 8 8 8 7 7 7 6 6 6 5 5 5 5 4 4 4 4 3 3 2 2 2 3 3 2 2 2 2 2 2 3
10 10 9 9 9 8 8 8 7 7 7 6 6 6 6 5 5 5 4 4 4 3 3 3 3 2 2 2 2 2 3 2 2 1 1 1 2 2
10 9 9 9 8 8 8 7 7 7 6 6 6 5 5 5 4 4 4 3 3 3 3 2 2 2 2 1 1 1 2 2 2 2 1 1 1 1
9 9 9 8 8 8 7 7 6 6 6 5 5 5 4 4 4 3 3 3 3 2 2 2 2 1 1 1 1 0 1 1 1 1 1 1 1 1
Wind_Speed
6 6 5 4 4 3 3 3 4 2 2 3 3 4 7 7 9 9 8 9 10 10 10 9 8 8 8 9 9 8 8 6 5 2 2 3 4 5
5 7 6 4 5 5 4 3 3 3 1 2 2 3 5 6 8 9 9 10 10 10 10 10 10 10 9 8 8 8 7 6 6 5 4 5 5 5
5 6 6 5 5 5 4 4 4 3 2 2 2 3 4 5 7 9 9 9 9 11 11 11 11 11 10 10 10 8 7 6 6 6 6 6 6 7
5 6 5 5 6 5 4 5 4 3 2 2 3 4 4 4 5 5 8 9 9 10 12 12 12 11 11 10 10 10 9 8 8 8 8 8 8 8
4 5 4 5 5 4 5 4 3 4 3 2 2 3 3 4 5 5 6 6 9 10 12 12 12 12 12 12 12 11 11 10 10 9 9 9 10 10
4 4 4 4 4 3 4 4 3 4 4 3 2 3 3 4 4 4 5 5 5 8 10 10 11 12 12 13 13 13 12 12 12 11 11 11 11 11
4 4 4 5 5 4 4 3 3 3 3 3 2 3 3 4 4 3 4 5 4 3 4 6 8 8 10 12 12 13 13 13 13 13 12 13 12 13
4 3 3 5 6 8 8 6 5 3 2 2 1 2 3 3 3 3 3 4 4 4 4 5 4 4 7 10 12 12 13 13 14 14 14 14 14 14
4 3 3 4 5 4 6 7 7 6 3 2 1 1 2 3 2 2 2 2 3 4 3 4 4 4 7 11 12 12 14 14 14 14 15 15 15 15
3 3 3 2 2 3 3 4 4 4 3 1 1 2 3 3 2 2 3 3 4 4 2 3 4 4 6 10 11 12 13 14 14 15 15 15 16 16
1 1 3 2 2 4 4 3 4 5 5 5 5 5 6 6 3 1 3 3 4 4 2 1 3 4 5 5 9 12 13 14 15 16 17 16 16 16
2 2 1 1 1 3 3 2 2 4 4 6 7 8 8 8 6 1 1 1 2 4 3 2 3 3 4 4 5 10 12 14 15 16 17 17 16 12
1 0 1 1 1 1 2 1 2 2 2 3 4 5 5 5 5 4 3 2 2 4 4 2 3 2 3 5 5 5 8 9 12 13 15 16 16 12
2 2 2 2 2 2 1 3 3 3 2 3 3 4 4 4 4 5 6 6 6 7 8 4 3 3 4 5 6 5 6 8 8 8 10 14 15 16
3 3 3 2 2 2 4 5 3 1 1 2 3 4 3 4 4 5 6 6 7 8 9 7 4 4 4 5 6 6 7 7 6 5 6 7 7 8
2 2 2 2 2 3 4 3 2 2 1 2 3 4 3 3 3 3 3 4 4 5 7 10 8 5 5 6 7 8 7 6 7 8 7 7 9 10
2 0 1 1 2 2 3 3 3 2 2 2 3 3 4 3 4 3 2 2 3 4 6 5 8 9 7 7 8 8 8 8 8 8 8 10 9 8
4 1 2 2 3 3 3 3 3 3 3 3 3 3 4 4 5 4 3 3 4 5 6 6 6 6 6 6 7 8 8 8 8 8 7 10 12 9
3 3 4 4 4 4 4 4 4 4 3 3 3 4 4 4 4 4 4 4 5 6 6 5 5 5 9 12 8 7 8 10 9 9 8 9 12 11
3 4 5 5 4 4 4 4 4 4 3 3 3 4 4 4 4 5 5 5 6 6 6 5 5 6 8 11 12 10 11 10 9 11 11 10 11 13
5 5 5 5 5 4 4 4 4 4 4 3 3 4 4 4 4 5 5 8 7 6 8 8 8 10 7 7 9 10 8 12 14 12 12 12 13 12
6 6 5 5 5 5 4 4 4 4 4 4 4 4 4 4 5 6 6 6 6 7 9 9 8 6 5 8 12 13 14 13 14 19 19 17 12 12
6 6 5 5 5 4 4 4 5 4 4 4 4 5 4 4 5 5 6 7 7 8 9 9 8 6 7 9 11 12 15 15 12 12 11 16 21 24
Wind_Direction
66 65 63 50 52 59 79 112 124 82 1 332 344 344 356 12 14 16 14 15 18 18 19 21 18 17 19 19 16 13 8 5 357 330 270 258 253 247
67 67 58 48 51 49 59 65 92 125 97 311 318 322 352 10 11 13 13 15 14 13 13 13 12 10 7 3 2 3 2 357 347 336 315 291 274 262
61 68 59 54 56 45 50 59 61 85 97 328 331 340 2 359 360 7 11 12 6 8 11 10 7 2 0 1 358 353 350 346 338 331 328 311 295 280
70 68 57 62 55 46 50 52 50 58 93 33 345 351 358 352 354 360 7 7 6 6 7 6 6 9 8 3 0 359 354 346 337 330 324 319 312 305
92 88 77 76 61 47 51 50 43 45 55 68 357 343 343 354 358 356 359 357 3 6 5 5 9 10 9 7 4 2 358 353 344 334 324 318 317 312
87 93 90 93 89 69 58 49 53 51 46 49 17 352 344 339 6 358 349 343 342 355 359 359 2 5 4 3 1 357 355 352 348 343 337 325 315 311
72 71 79 89 83 79 77 70 68 62 53 47 24 6 349 351 346 332 337 327 325 342 340 344 350 355 353 353 353 352 350 348 345 340 336 331 323 316
88 64 63 62 63 62 64 68 72 78 78 63 25 354 313 308 314 330 338 353 329 326 346 323 342 334 334 337 341 347 352 349 344 339 336 333 329 322
110 95 75 62 62 55 46 45 39 40 58 134 138 270 276 282 302 325 325 313 284 292 336 310 322 319 318 326 334 340 344 344 342 339 336 333 330 323
118 124 115 82 52 78 65 35 17 6 5 61 177 250 261 267 246 254 267 291 290 296 318 299 310 307 312 313 323 333 336 335 334 332 331 329 328 325
75 98 117 122 62 85 81 43 7 347 356 3 352 338 333 333 338 11 352 359 324 306 318 296 300 309 304 301 316 327 329 329 326 324 323 321 320 320
45 27 71 96 83 89 97 83 354 317 332 342 346 346 343 338 336 294 217 277 296 300 299 303 300 327 316 297 307 317 321 318 316 314 313 313 314 315
134 344 307 343 56 79 94 149 272 294 316 329 332 334 337 335 326 311 250 212 243 267 279 283 289 295 274 294 302 300 303 307 309 306 304 304 305 304
187 220 257 302 337 354 353 327 333 359 356 347 340 330 326 321 313 308 296 273 254 258 277 272 262 270 282 294 296 298 298 298 295 291 297 302 303 300
204 219 242 275 310 327 325 328 341 352 340 326 309 299 293 293 307 314 311 307 299 294 294 285 262 270 263 275 285 292 302 299 290 287 293 294 292 295
211 250 260 292 299 300 315 323 312 271 258 265 279 284 297 311 310 307 307 320 322 313 310 305 289 272 280 277 280 289 290 288 297 295 291 289 288 285
171 86 1 325 318 314 310 305 302 307 291 279 281 293 302 307 302 305 301 309 307 305 311 309 303 290 266 270 283 284 287 289 288 291 295 293 287 280
152 185 234 244 254 265 276 287 287 279 270 266 271 277 285 291 297 301 297 297 298 299 298 300 310 316 310 287 251 274 286 287 290 288 283 288 290 284
175 216 231 239 246 253 254 256 266 270 266 264 268 273 277 283 289 294 298 297 293 291 292 296 301 304 309 307 292 266 284 293 293 291 285 282 285 286
208 224 235 240 243 245 248 253 264 275 271 267 268 272 273 278 287 289 290 289 290 293 296 295 289 285 285 292 295 292 282 278 286 289 290 288 284 281
225 233 237 237 238 240 244 247 251 259 263 262 267 269 271 273 280 283 285 289 290 293 295 294 285 284 284 291 295 294 289 281 276 280 288 293 295 293
227 230 236 235 235 238 240 242 250 256 262 261 263 266 268 267 273 280 284 288 287 286 289 292 294 296 290 291 294 298 301 301 291 281 273 270 280 285
229 228 232 236 236 235 234 237 242 253 255 256 259 263 266 270 271 274 279 282 286 290 294 297 299 292 287 286 291 296 297 301 304 302 292 284 278 277
Height
1564 1564 1563 1563 1563 1563 1563 1563 1563 1562 1562 1561 1561 1560 1559 1558 1557 1556 1554 1553 1552 1552 1551 1550 1550 1549 1549 1548 1548 1548 1547 1548 1547 1548 1548 1549 1550 1551
1566 1566 1565 1565 1564 1564 1564 1563 1563 1563 1562 1562 1561 1560 1559 1558 1557 1556 1555 1554 1553 1552 1551 1550 1549 1549 1548 1548 1547 1546 1546 1546 1546 1546 1547 1547 1548 1548
1567 1567 1567 1566 1566 1565 1564 1564 1564 1563 1562 1562 1561 1560 1559 1558 1557 1556 1555 1553 1552 1551 1550 1550 1549 1548 1547 1546 1545 1544 1544 1544 1544 1545 1544 1544 1545 1545
1569 1568 1568 1567 1567 1566 1565 1564 1564 1563 1563 1562 1561 1560 1559 1558 1557 1555 1554 1553 1552 1551 1550 1549 1548 1547 1546 1545 1544 1542 1542 1542 1542 1542 1542 1542 1542 1542
1570 1569 1569 1568 1567 1567 1566 1565 1564 1564 1563 1562 1561 1560 1559 1558 1556 1555 1554 1552 1551 1550 1549 1548 1547 1546 1545 1544 1542 1541 1540 1539 1539 1539 1538 1538 1538 1538
1571 1570 1570 1569 1568 1567 1567 1566 1565 1564 1563 1562 1561 1560 1559 1557 1556 1554 1552 1551 1550 1549 1548 1547 1546 1544 1543 1542 1540 1539 1538 1537 1536 1535 1535 1534 1534 1533
1571 1571 1570 1569 1569 1568 1567 1566 1565 1564 1563 1562 1560 1559 1558 1556 1555 1553 1551 1550 1549 1547 1546 1545 1544 1542 1541 1539 1538 1536 1535 1534 1533 1532 1531 1530 1529 1528
1571 1571 1570 1570 1569 1568 1567 1566 1565 1564 1562 1561 1560 1558 1557 1555 1554 1552 1550 1548 1547 1546 1544 1542 1541 1540 1538 1536 1535 1533 1532 1530 1529 1527 1526 1525 1524 1523
1571 1570 1570 1569 1569 1568 1567 1566 1564 1563 1562 1561 1559 1558 1556 1555 1553 1551 1549 1548 1546 1544 1542 1539 1538 1536 1535 1533 1531 1529 1528 1526 1525 1523 1521 1520 1519 1517
1570 1570 1569 1569 1568 1567 1566 1565 1564 1563 1561 1560 1559 1557 1555 1554 1552 1550 1548 1546 1544 1543 1540 1537 1535 1533 1531 1530 1528 1526 1524 1522 1520 1518 1517 1515 1513 1511
1569 1569 1568 1568 1567 1566 1565 1564 1563 1562 1560 1559 1557 1556 1554 1553 1551 1549 1546 1544 1541 1540 1538 1535 1532 1529 1527 1526 1524 1523 1520 1518 1516 1514 1512 1510 1507 1505
1568 1568 1567 1567 1566 1565 1564 1562 1561 1560 1559 1557 1556 1554 1553 1551 1549 1547 1544 1542 1539 1536 1535 1533 1529 1526 1522 1521 1520 1518 1516 1513 1511 1509 1506 1504 1502 1499
1566 1566 1566 1565 1564 1563 1562 1561 1560 1559 1557 1555 1554 1552 1550 1548 1546 1544 1542 1540 1537 1534 1533 1530 1527 1524 1521 1517 1514 1513 1511 1507 1505 1502 1500 1498 1495 1492
1565 1565 1564 1564 1563 1562 1561 1559 1558 1557 1555 1553 1551 1549 1547 1546 1543 1541 1539 1537 1534 1532 1530 1527 1524 1521 1517 1513 1509 1506 1504 1501 1498 1495 1492 1490 1488 1485
1563 1563 1562 1561 1560 1559 1558 1557 1556 1554 1552 1550 1548 1547 1545 1543 1540 1538 1536 1533 1531 1528 1526 1523 1520 1517 1514 1509 1504 1500 1497 1494 1492 1489 1485 1483 1480 1477
1560 1560 1560 1559 1558 1557 1556 1554 1553 1551 1549 1547 1545 1544 1542 1539 1537 1534 1531 1528 1525 1523 1522 1519 1516 1512 1508 1504 1500 1495 1492 1489 1485 1482 1478 1475 1472 1469
1557 1557 1556 1555 1554 1553 1552 1551 1550 1548 1546 1544 1542 1540 1538 1535 1533 1530 1527 1524 1520 1517 1514 1513 1510 1507 1503 1499 1494 1490 1486 1482 1479 1475 1471 1465 1462 1460
1554 1553 1552 1551 1550 1549 1548 1547 1546 1544 1542 1540 1538 1536 1533 1531 1528 1526 1523 1520 1516 1513 1509 1506 1503 1498 1494 1491 1490 1484 1480 1475 1471 1468 1464 1458 1452 1450
1549 1548 1548 1547 1546 1545 1544 1543 1541 1540 1538 1536 1534 1531 1529 1526 1524 1521 1518 1515 1511 1508 1504 1501 1498 1493 1487 1481 1478 1479 1474 1468 1463 1459 1455 1451 1444 1440
1544 1544 1543 1542 1542 1541 1539 1538 1536 1535 1533 1531 1529 1526 1524 1521 1518 1516 1513 1509 1506 1502 1498 1496 1493 1489 1484 1478 1471 1467 1467 1462 1457 1451 1446 1441 1436 1431
1539 1539 1538 1538 1537 1536 1535 1533 1532 1530 1528 1526 1524 1521 1519 1516 1513 1510 1507 1504 1500 1496 1492 1489 1486 1483 1478 1472 1465 1459 1456 1455 1451 1446 1439 1433 1427 1421
1534 1534 1533 1533 1532 1531 1529 1528 1526 1524 1522 1520 1518 1516 1513 1511 1508 1505 1501 1498 1494 1490 1486 1482 1478 1475 1471 1465 1459 1452 1447 1443 1440 1437 1433 1428 1422 1414
1529 1528 1528 1527 1526 1525 1524 1522 1521 1519 1517 1515 1512 1510 1507 1504 1501 1498 1495 1491 1487 1483 1479 1475 1471 1467 1463 1458 1453 1446 1440 1435 1430 1424 1420 1418 1415 1409